TimeCDT,TemperatureF,Dew PointF,Humidity,Sea Level PressureIn,VisibilityMPH,Wind Direction,Wind SpeedMPH,Gust SpeedMPH,PrecipitationIn,Events,Conditions,WindDirDegrees,DateUTC
12:13 AM,51.8,46.4,82,30.04,10.0,North,10.4,-,N/A,,Clear,360,2013-09-15 05:13:00
12:33 AM,50.0,46.4,87,30.04,10.0,North,10.4,-,N/A,,Clear,350,2013-09-15 05:33:00
12:54 AM,50.0,46.4,87,30.05,10.0,North,10.4,-,N/A,,Clear,360,2013-09-15 05:54:00
1:13 AM,50.0,46.4,87,30.06,10.0,North,9.2,-,N/A,,Clear,350,2013-09-15 06:13:00
1:33 AM,48.2,46.4,93,30.06,10.0,North,12.7,-,N/A,,Clear,350,2013-09-15 06:33:00
1:53 AM,48.2,44.6,87,30.07,10.0,North,12.7,-,N/A,,Clear,360,2013-09-15 06:53:00
2:13 AM,48.2,44.6,87,30.07,10.0,North,12.7,-,N/A,,Scattered Clouds,10,2013-09-15 07:13:00
2:34 AM,48.2,44.6,87,30.09,10.0,North,11.5,-,N/A,,Scattered Clouds,360,2013-09-15 07:34:00
2:53 AM,48.2,44.6,87,30.09,10.0,North,10.4,-,N/A,,Scattered Clouds,10,2013-09-15 07:53:00
3:13 AM,46.4,42.8,87,30.10,10.0,North,10.4,-,N/A,,Clear,10,2013-09-15 08:13:00
3:33 AM,46.4,42.8,87,30.11,10.0,North,10.4,-,N/A,,Clear,10,2013-09-15 08:33:00
3:53 AM,46.4,42.8,87,30.12,10.0,North,10.4,-,N/A,,Clear,10,2013-09-15 08:53:00
4:14 AM,46.4,42.8,87,30.13,10.0,North,9.2,-,N/A,,Clear,10,2013-09-15 09:14:00
4:33 AM,44.6,42.8,93,30.14,10.0,North,9.2,-,N/A,,Clear,10,2013-09-15 09:33:00
4:53 AM,44.6,41.0,87,30.15,10.0,North,9.2,-,N/A,,Clear,10,2013-09-15 09:53:00
5:14 AM,44.6,41.0,87,30.16,10.0,North,10.4,-,N/A,,Clear,10,2013-09-15 10:14:00
5:33 AM,42.8,39.2,87,30.17,10.0,North,10.4,-,N/A,,Clear,10,2013-09-15 10:33:00
5:53 AM,42.8,39.2,87,30.18,10.0,North,11.5,-,N/A,,Clear,10,2013-09-15 10:53:00
6:13 AM,42.8,39.2,87,30.19,10.0,North,10.4,-,N/A,,Clear,10,2013-09-15 11:13:00
6:33 AM,42.8,39.2,87,30.20,10.0,NNE,8.1,-,N/A,,Clear,20,2013-09-15 11:33:00
6:53 AM,42.8,39.2,87,30.21,10.0,NNE,9.2,-,N/A,,Clear,20,2013-09-15 11:53:00
7:13 AM,41.0,39.2,93,30.22,10.0,North,8.1,-,N/A,,Clear,10,2013-09-15 12:13:00
7:33 AM,41.0,39.2,93,30.23,10.0,North,8.1,-,N/A,,Clear,10,2013-09-15 12:33:00
7:53 AM,42.8,39.2,87,30.23,10.0,NNE,6.9,-,N/A,,Clear,20,2013-09-15 12:53:00
8:13 AM,42.8,39.2,87,30.25,10.0,NNE,6.9,-,N/A,,Clear,20,2013-09-15 13:13:00
8:33 AM,44.6,41.0,87,30.25,10.0,NNE,9.2,-,N/A,,Clear,30,2013-09-15 13:33:00
8:53 AM,46.4,41.0,81,30.26,10.0,NNE,8.1,-,N/A,,Clear,30,2013-09-15 13:53:00
9:13 AM,48.2,41.0,76,30.27,10.0,NNE,9.2,-,N/A,,Clear,30,2013-09-15 14:13:00
9:33 AM,48.2,41.0,76,30.27,10.0,NNE,10.4,-,N/A,,Clear,30,2013-09-15 14:33:00
9:53 AM,50.0,41.0,71,30.28,10.0,NE,10.4,17.3,N/A,,Clear,40,2013-09-15 14:53:00
10:13 AM,51.8,39.2,62,30.29,10.0,NE,11.5,17.3,N/A,,Clear,40,2013-09-15 15:13:00
10:33 AM,51.8,39.2,62,30.29,10.0,NNE,11.5,-,N/A,,Clear,30,2013-09-15 15:33:00
10:53 AM,53.6,39.2,58,30.30,10.0,NNE,11.5,-,N/A,,Clear,30,2013-09-15 15:53:00
11:13 AM,53.6,39.2,58,30.30,10.0,NE,8.1,-,N/A,,Clear,40,2013-09-15 16:13:00
11:33 AM,53.6,39.2,58,30.31,10.0,ENE,6.9,-,N/A,,Clear,60,2013-09-15 16:33:00
11:53 AM,55.4,39.2,54,30.31,10.0,NNE,6.9,-,N/A,,Clear,30,2013-09-15 16:53:00
12:13 PM,55.4,39.2,54,30.32,10.0,NNE,10.4,19.6,N/A,,Clear,30,2013-09-15 17:13:00
12:33 PM,57.2,39.2,51,30.32,10.0,NNE,6.9,-,N/A,,Clear,20,2013-09-15 17:33:00
12:53 PM,57.2,39.2,51,30.31,10.0,North,8.1,-,N/A,,Clear,360,2013-09-15 17:53:00
1:13 PM,57.2,37.4,48,30.31,10.0,NE,5.8,-,N/A,,Clear,40,2013-09-15 18:13:00
1:33 PM,59.0,37.4,45,30.31,10.0,NE,6.9,-,N/A,,Clear,40,2013-09-15 18:33:00
1:53 PM,59.0,37.4,45,30.31,10.0,NE,3.5,-,N/A,,Clear,50,2013-09-15 18:53:00
2:13 PM,60.8,37.4,42,30.31,10.0,North,9.2,-,N/A,,Clear,360,2013-09-15 19:13:00
2:33 PM,60.8,37.4,42,30.31,10.0,NE,8.1,-,N/A,,Clear,40,2013-09-15 19:33:00
2:53 PM,60.8,37.4,42,30.30,10.0,NNE,9.2,-,N/A,,Clear,30,2013-09-15 19:53:00
3:13 PM,62.6,37.4,39,30.30,10.0,NNE,6.9,-,N/A,,Clear,20,2013-09-15 20:13:00
3:33 PM,62.6,37.4,39,30.30,10.0,NNE,9.2,-,N/A,,Clear,20,2013-09-15 20:33:00
3:53 PM,62.6,37.4,39,30.30,10.0,North,5.8,-,N/A,,Clear,360,2013-09-15 20:53:00
4:13 PM,62.6,35.6,37,30.31,10.0,NNE,5.8,-,N/A,,Clear,30,2013-09-15 21:13:00
4:33 PM,62.6,35.6,37,30.31,10.0,North,3.5,-,N/A,,Clear,10,2013-09-15 21:33:00
4:53 PM,62.6,35.6,37,30.31,10.0,NNE,8.1,-,N/A,,Clear,20,2013-09-15 21:53:00
5:13 PM,62.6,33.8,34,30.31,10.0,Calm,Calm,-,N/A,,Clear,0,2013-09-15 22:13:00
5:33 PM,62.6,33.8,34,30.30,10.0,North,5.8,-,N/A,,Clear,360,2013-09-15 22:33:00
5:53 PM,62.6,33.8,34,30.30,10.0,NNE,3.5,-,N/A,,Clear,20,2013-09-15 22:53:00
6:13 PM,62.6,35.6,37,30.30,10.0,North,3.5,-,N/A,,Clear,10,2013-09-15 23:13:00
6:33 PM,62.6,37.4,39,30.30,10.0,NNE,5.8,-,N/A,,Clear,30,2013-09-15 23:33:00
6:53 PM,60.8,37.4,42,30.30,10.0,NNE,4.6,-,N/A,,Clear,20,2013-09-15 23:53:00
7:13 PM,59.0,39.2,48,30.30,10.0,NNE,3.5,-,N/A,,Clear,20,2013-09-16 00:13:00
7:33 PM,57.2,39.2,51,30.30,10.0,North,3.5,-,N/A,,Clear,10,2013-09-16 00:33:00
7:53 PM,53.6,39.2,58,30.30,10.0,NNE,5.8,-,N/A,,Clear,20,2013-09-16 00:53:00
8:13 PM,51.8,39.2,62,30.30,10.0,NNE,5.8,-,N/A,,Clear,20,2013-09-16 01:13:00
8:33 PM,51.8,39.2,62,30.30,10.0,NNE,5.8,-,N/A,,Clear,20,2013-09-16 01:33:00
8:53 PM,50.0,39.2,66,30.31,10.0,NNE,3.5,-,N/A,,Clear,20,2013-09-16 01:53:00
9:13 PM,48.2,39.2,71,30.31,10.0,Calm,Calm,-,N/A,,Clear,0,2013-09-16 02:13:00
9:33 PM,48.2,41.0,76,30.31,10.0,Calm,Calm,-,N/A,,Clear,0,2013-09-16 02:33:00
9:53 PM,46.4,41.0,81,30.31,10.0,ENE,4.6,-,N/A,,Clear,60,2013-09-16 02:53:00
10:13 PM,46.4,41.0,81,30.31,10.0,ENE,4.6,-,N/A,,Clear,70,2013-09-16 03:13:00
10:33 PM,44.6,39.2,81,30.31,10.0,East,3.5,-,N/A,,Clear,80,2013-09-16 03:33:00
10:53 PM,42.8,39.2,87,30.31,10.0,East,3.5,-,N/A,,Clear,80,2013-09-16 03:53:00
11:13 PM,42.8,39.2,87,30.32,10.0,East,8.1,-,N/A,,Clear,90,2013-09-16 04:13:00
11:33 PM,44.6,39.2,81,30.32,10.0,East,5.8,-,N/A,,Clear,90,2013-09-16 04:33:00
11:53 PM,42.8,39.2,87,30.32,10.0,ESE,5.8,-,N/A,,Clear,110,2013-09-16 04:53:00